User: anonymous   Login
Location: Feydey
(46.3431°N, 7.0106°E)
Time: 15:44:59
(UTC+00:00)
Language:

GEOS 3 Rocket - Orbit

View from above orbital plane
View from above orbital plane
View from above satellite
View from above satellite

Ground track
Ground track

The orbit data is extracted from the following two-line orbital elements,

1 07735U 75027B   21264.66601891 -.00000131  00000-0  20059-4 0  9991
2 07735 114.9727 182.7759 0036052 183.9620 176.1179 14.24649370412020
Epoch (UTC): 21 September 2021 15:59:04
Eccentricity: 0.0036052
inclination: 114.9727°
perigee height: 784 km
apogee height: 835 km
right ascension of ascending node: 182.7759°
argument of perigee: 183.9620°
revolutions per day: 14.24649370
mean anomaly at epoch: 176.1179°
orbit number at epoch: 41202

The dashed part of the orbit path shows where the satellite is in the earth's shadow,  

DLR